Location: Bremen
(53.0793°N, 8.8017°E)
Time: 06:12:49
(UTC+01:00)

ISS - Visible Passes

Search period start: 09 December 2025 00:00
Search period end: 19 December 2025 00:00
Orbit: 416 x 421 km, 51.6° (Epoch: 08 December)

Date Brightness Start Highest point End Pass type
(mag) Time Alt. Az. Time Alt. Az. Time Alt. Az.
13 Dec -0.7 07:15:09 10° S 07:17:29 18° SE 07:19:49 10° E visible
14 Dec -0.6 06:28:16 10° SSE 06:29:44 12° SE 06:31:14 10° ESE visible
15 Dec -1.9 07:14:58 10° SW 07:17:59 31° SSE 07:21:01 10° E visible
16 Dec -1.5 06:27:22 10° SSW 06:30:07 23° SSE 06:32:52 10° E visible
17 Dec -1.2 05:41:23 16° SSE 05:42:16 17° SE 05:44:33 10° ESE visible
17 Dec -2.9 07:15:15 10° WSW 07:18:31 49° SSE 07:21:48 10° E visible
18 Dec -0.3 04:55:45 10° ESE 04:55:45 10° ESE 04:55:49 10° ESE visible
18 Dec -2.6 06:28:43 21° SW 06:30:32 39° SSE 06:33:43 10° E visible
